Location: Wanzleben
(52.0609°N, 11.4408°E)
Time: 07:29:10
(UTC+00:00)

Landsat 7 - Pass Details

Date: 18 September 2020
Orbit: 701 x 703 km, 98.1° (Epoch: 21 October)

Event Time Altitude Azimuth Distance (km) Brightness Sun altitude
Exits shadow 19:25:45 36° 93° (E) 1,109 4.4 -19.1°
Maximum altitude 19:26:38 40° 66° (ENE) 1,040 4.4 -19.2°
Drops below altitude 10° 19:31:05 10° 358° (N) 2,184 6.8 -19.8°
Sets 19:33:27 0° 351° (N) 3,107 7.7 -20.1°
